| time (UTC) | temp F | wind direction | speed MPH | gust MPH | rain 1hr in | rain 24hr in | rain mn in | humidity % | barometer mb |
| 20260831063043 | 60 | 101 | 1.0 | 3.0 | 0.00 | 0.00 | 0.00 | 80 | 1020.3 |
| 20260831061556 | 60 | 63 | 0.0 | 2.0 | 0.00 | 0.00 | 0.00 | 80 | 1020.4 |
| 20260831060039 | 59 | 121 | 0.0 | 1.0 | 0.00 | 0.00 | 0.00 | 81 | 1020.6 |
| 20260831054539 | 59 | 245 | 1.0 | 2.0 | 0.00 | 0.00 | 0.00 | 81 | 1020.7 |
| 20260831053040 | 59 | 100 | 1.0 | 2.0 | 0.00 | 0.00 | 0.00 | 81 | 1020.5 |
| 20260831051538 | 59 | 66 | 0.0 | 1.0 | 0.00 | 0.00 | 0.00 | 80 | 1020.7 |
| 20260831050034 | 60 | 5 | 0.0 | 0.0 | 0.00 | 0.00 | 0.00 | 80 | 1021.0 |
| 20260831044534 | 60 | 5 | 0.0 | 1.0 | 0.00 | 0.00 | 0.00 | 80 | 1021.1 |
| 20260831043032 | 60 | 252 | 0.0 | 1.0 | 0.00 | 0.00 | 0.00 | 81 | 1021.1 |
| 20260831041531 | 60 | 106 | 1.0 | 2.0 | 0.00 | 0.00 | 0.00 | 81 | 1020.9 |
| 20260831040028 | 60 | 132 | 0.0 | 2.0 | 0.00 | 0.00 | 0.00 | 81 | 1020.9 |
| 20260831034527 | 60 | 57 | 0.0 | 0.0 | 0.00 | 0.00 | 0.00 | 81 | 1021.0 |
| 20260831033032 | 60 | 166 | 0.0 | 1.0 | 0.00 | 0.00 | 0.00 | 82 | 1020.9 |
| 20260831031533 | 60 | 71 | 0.0 | 2.0 | 0.00 | 0.00 | 0.00 | 82 | 1020.8 |
| 20260831030023 | 61 | 321 | 0.0 | 3.0 | 0.00 | 0.00 | 0.00 | 81 | 1020.8 |
| 20260831024536 | 61 | 317 | 0.0 | 2.0 | 0.00 | 0.00 | 0.00 | 81 | 1020.8 |
| 20260831023019 | 62 | 196 | 0.0 | 1.0 | 0.00 | 0.00 | 0.00 | 81 | 1020.8 |
| 20260831021519 | 62 | 126 | 0.0 | 2.0 | 0.00 | 0.00 | 0.00 | 81 | 1020.8 |
| 20260831020018 | 62 | 59 | 0.0 | 2.0 | 0.00 | 0.00 | 0.00 | 81 | 1021.0 |
| 20260831014532 | 62 | 71 | 0.0 | 1.0 | 0.00 | 0.00 | 0.00 | 81 | 1020.9 |
| 20260831013020 | 62 | 87 | 0.0 | 2.0 | 0.00 | 0.00 | 0.00 | 82 | 1020.9 |
| 20260831011518 | 62 | 103 | 0.0 | 2.0 | 0.00 | 0.00 | 0.00 | 82 | 1020.9 |
| 20260831010014 | 63 | 103 | 0.0 | 1.0 | 0.00 | 0.00 | 0.00 | 83 | 1020.6 |
| 20260831004512 | 64 | 103 | 0.0 | 2.0 | 0.00 | 0.00 | 0.00 | 84 | 1020.5 |
| 20260831003010 | 65 | 77 | 1.0 | 2.0 | 0.00 | 0.00 | 0.00 | 84 | 1020.1 |
| 20260831001508 | 66 | 292 | 0.0 | 0.0 | 0.00 | 0.00 | 0.00 | 84 | 1020.0 |
| 20260831000007 | 66 | 274 | 0.0 | 2.0 | 0.00 | 0.00 | 0.00 | 84 | 1019.8 |
| 20260830234507 | 66 | 270 | 0.0 | 2.0 | 0.00 | 0.00 | 0.00 | 84 | 1019.8 |
| 20260830233006 | 67 | 30 | 0.0 | 2.0 | 0.00 | 0.00 | 0.00 | 84 | 1019.7 |
| 20260830231507 | 67 | 348 | 1.0 | 2.0 | 0.00 | 0.00 | 0.00 | 84 | 1019.6 |
| 20260830230005 | 67 | 275 | 0.0 | 3.0 | 0.00 | 0.00 | 0.00 | 84 | 1019.6 |
| 20260830224505 | 67 | 269 | 1.0 | 4.0 | 0.00 | 0.00 | 0.00 | 84 | 1019.7 |
| 20260830223003 | 67 | 257 | 0.0 | 4.0 | 0.00 | 0.00 | 0.00 | 84 | 1019.8 |
| 20260830221504 | 67 | 280 | 2.0 | 5.0 | 0.00 | 0.00 | 0.00 | 84 | 1019.8 |
| 20260830220003 | 67 | 265 | 4.0 | 9.0 | 0.00 | 0.00 | 0.00 | 84 | 1019.8 |
| 20260830214502 | 67 | 290 | 4.0 | 10.0 | 0.00 | 0.00 | 0.00 | 84 | 1019.9 |
| 20260830213001 | 68 | 267 | 2.0 | 8.0 | 0.00 | 0.00 | 0.00 | 84 | 1019.8 |
| 20260830211501 | 69 | 292 | 4.0 | 10.0 | 0.00 | 0.00 | 0.00 | 84 | 1019.8 |
| 20260830210100 | 69 | 246 | 3.0 | 10.0 | 0.00 | 0.00 | 0.00 | 83 | 1019.8 |
| 20260830204601 | 69 | 242 | 3.0 | 10.0 | 0.00 | 0.00 | 0.00 | 83 | 1019.7 |
| 20260830203118 | 69 | 309 | 4.0 | 7.0 | 0.00 | 0.00 | 0.00 | 84 | 1019.8 |
| 20260830201608 | 68 | 289 | 1.0 | 4.0 | 0.00 | 0.00 | 0.00 | 84 | 1019.6 |
| 20260830200057 | 68 | 301 | 1.0 | 4.0 | 0.00 | 0.00 | 0.00 | 84 | 1019.6 |
| 20260830194602 | 68 | 298 | 1.0 | 4.0 | 0.00 | 0.00 | 0.00 | 84 | 1019.9 |
| 20260830193056 | 68 | 307 | 1.0 | 5.0 | 0.00 | 0.00 | 0.00 | 84 | 1020.1 |
| 20260830191600 | 68 | 328 | 3.0 | 5.0 | 0.00 | 0.00 | 0.00 | 84 | 1020.1 |
| 20260830190056 | 68 | 298 | 2.0 | 4.0 | 0.00 | 0.00 | 0.00 | 83 | 1020.1 |
| 20260830184555 | 68 | 267 | 2.0 | 6.0 | 0.00 | 0.00 | 0.00 | 83 | 1020.2 |
| 20260830183107 | 68 | 275 | 1.0 | 4.0 | 0.00 | 0.00 | 0.00 | 84 | 1020.1 |
| 20260830181558 | 67 | 214 | 2.0 | 6.0 | 0.00 | 0.00 | 0.00 | 83 | 1020.3 |
| 20260830180053 | 67 | 317 | 4.0 | 9.0 | 0.00 | 0.00 | 0.00 | 83 | 1020.6 |
| 20260830174558 | 68 | 304 | 5.0 | 10.0 | 0.00 | 0.00 | 0.00 | 81 | 1020.5 |
| 20260830173107 | 68 | 323 | 3.0 | 8.0 | 0.00 | 0.00 | 0.00 | 79 | 1020.3 |
| 20260830171550 | 69 | 12 | 3.0 | 4.0 | 0.00 | 0.00 | 0.00 | 78 | 1020.1 |
| 20260830170051 | 69 | 319 | 2.0 | 7.0 | 0.00 | 0.00 | 0.00 | 76 | 1020.3 |
| 20260830164607 | 70 | 317 | 5.0 | 12.0 | 0.00 | 0.00 | 0.00 | 74 | 1020.5 |
| 20260830163104 | 70 | 298 | 2.0 | 5.0 | 0.00 | 0.00 | 0.00 | 73 | 1020.4 |
| 20260830161549 | 70 | 323 | 2.0 | 4.0 | 0.00 | 0.00 | 0.00 | 72 | 1020.4 |
| 20260830160047 | 70 | 250 | 2.0 | 5.0 | 0.00 | 0.00 | 0.00 | 72 | 1020.5 |
| 20260830154551 | 71 | 314 | 3.0 | 8.0 | 0.00 | 0.00 | 0.00 | 70 | 1020.5 |
| 20260830153046 | 71 | 297 | 2.0 | 4.0 | 0.00 | 0.00 | 0.00 | 71 | 1020.4 |
| 20260830151546 | 71 | 304 | 1.0 | 4.0 | 0.00 | 0.00 | 0.00 | 72 | 1020.3 |
| 20260830150047 | 71 | 291 | 1.0 | 2.0 | 0.00 | 0.00 | 0.00 | 75 | 1020.3 |
| 20260830144556 | 71 | 281 | 0.0 | 3.0 | 0.00 | 0.00 | 0.00 | 74 | 1020.1 |
| 20260830143044 | 71 | 231 | 0.0 | 3.0 | 0.00 | 0.00 | 0.00 | 74 | 1020.0 |
| 20260830141543 | 71 | 247 | 2.0 | 4.0 | 0.00 | 0.00 | 0.00 | 72 | 1019.9 |
| 20260830140041 | 71 | 258 | 2.0 | 5.0 | 0.00 | 0.00 | 0.00 | 72 | 1019.9 |
| 20260830134539 | 70 | 234 | 1.0 | 4.0 | 0.00 | 0.00 | 0.00 | 72 | 1019.9 |
| 20260830133046 | 70 | 240 | 1.0 | 4.0 | 0.00 | 0.00 | 0.00 | 73 | 1019.8 |
| 20260830131537 | 69 | 144 | 0.0 | 2.0 | 0.00 | 0.00 | 0.00 | 74 | 1019.7 |
| 20260830130035 | 69 | 208 | 1.0 | 5.0 | 0.00 | 0.00 | 0.00 | 73 | 1019.8 |
| 20260830124541 | 69 | 249 | 0.0 | 3.0 | 0.00 | 0.00 | 0.00 | 72 | 1020.0 |
| 20260830123044 | 69 | 211 | 0.0 | 3.0 | 0.00 | 0.00 | 0.00 | 71 | 1019.9 |
| 20260830121533 | 69 | 225 | 1.0 | 5.0 | 0.00 | 0.00 | 0.00 | 70 | 1019.9 |
| 20260830120033 | 69 | 176 | 2.0 | 5.0 | 0.00 | 0.00 | 0.00 | 70 | 1020.1 |
| 20260830114534 | 69 | 281 | 1.0 | 4.0 | 0.00 | 0.00 | 0.00 | 69 | 1020.3 |
| 20260830113030 | 69 | 185 | 1.0 | 5.0 | 0.00 | 0.00 | 0.00 | 68 | 1020.2 |
| 20260830111531 | 69 | 236 | 1.0 | 4.0 | 0.00 | 0.00 | 0.00 | 68 | 1020.1 |
| 20260830110030 | 69 | 240 | 2.0 | 5.0 | 0.00 | 0.00 | 0.00 | 68 | 1020.0 |
| 20260830104528 | 69 | 203 | 2.0 | 6.0 | 0.00 | 0.00 | 0.00 | 68 | 1020.1 |
| 20260830103028 | 69 | 232 | 0.0 | 7.0 | 0.00 | 0.00 | 0.00 | 68 | 1020.2 |
| 20260830101527 | 69 | 218 | 3.0 | 8.0 | 0.00 | 0.00 | 0.00 | 68 | 1020.3 |
| 20260830100025 | 69 | 242 | 2.0 | 7.0 | 0.00 | 0.00 | 0.00 | 68 | 1020.6 |
| 20260830094524 | 68 | 239 | 3.0 | 7.0 | 0.00 | 0.00 | 0.00 | 69 | 1020.4 |
| 20260830093030 | 69 | 215 | 3.0 | 7.0 | 0.00 | 0.00 | 0.00 | 68 | 1020.5 |
| 20260830091523 | 68 | 267 | 2.0 | 9.0 | 0.00 | 0.00 | 0.00 | 68 | 1020.6 |
| 20260830090036 | 68 | 215 | 4.0 | 8.0 | 0.00 | 0.00 | 0.00 | 67 | 1020.5 |
| 20260830084520 | 69 | 239 | 2.0 | 8.0 | 0.00 | 0.00 | 0.00 | 67 | 1020.8 |
| 20260830083051 | 69 | 228 | 1.0 | 7.0 | 0.00 | 0.00 | 0.00 | 67 | 1020.9 |
| 20260830081516 | 69 | 252 | 2.0 | 7.0 | 0.00 | 0.00 | 0.00 | 67 | 1020.9 |
| 20260830080016 | 68 | 238 | 3.0 | 9.0 | 0.00 | 0.00 | 0.00 | 68 | 1021.1 |
| 20260830074514 | 69 | 221 | 2.0 | 6.0 | 0.00 | 0.00 | 0.00 | 70 | 1021.1 |
| 20260830073014 | 69 | 187 | 0.0 | 5.0 | 0.00 | 0.00 | 0.00 | 70 | 1020.9 |
| 20260830071516 | 69 | 223 | 2.0 | 5.0 | 0.00 | 0.00 | 0.00 | 70 | 1021.1 |
| 20260830070016 | 68 | 232 | 0.0 | 3.0 | 0.00 | 0.00 | 0.00 | 70 | 1021.1 |
| 20260830064523 | 69 | 200 | 0.0 | 2.0 | 0.00 | 0.00 | 0.00 | 71 | 1021.1 |